Location: Feydey
(46.3431°N, 7.0106°E)
Time: 07:08:18
(UTC+00:00)

SL-4 R/B - Pass Details

Date: 20 June 2021
Orbit: 428 x 662 km, 51.6° (Epoch: 28 July)

Event Time Altitude Azimuth Distance (km) Brightness Sun altitude
Rises 23:32:52 0° 267° (W) 2,688 5.5 -20.2°
Reaches altitude 10° 23:35:15 10° 274° (W) 1,754 4.6 -20.2°
Maximum altitude 23:39:02 43° 347° (NNW) 705 3.0 -20.2°
Drops below altitude 10° 23:42:34 10° 60° (ENE) 1,633 4.8 -20.2°
Sets 23:44:43 0° 67° (ENE) 2,478 5.7 -20.2°
